Location: Boiro
(42.6475°N, 8.8834°W)
Time: 06:30:00
(UTC+01:00)

NOAA 15 - Visible Passes

Search period start: 28 January 2022 00:00
Search period end: 07 February 2022 00:00
Orbit: 797 x 812 km, 98.7° (Epoch: 27 January)

Date Brightness Start Highest point End Pass type
(mag) Time Alt. Az. Time Alt. Az. Time Alt. Az.
28 Jan 4.5 20:19:02 10° SSE 20:24:16 79° ENE 20:29:33 10° N visible
28 Jan 7.5 22:02:15 10° WSW 22:04:38 13° W 22:07:03 10° WNW visible
29 Jan 4.8 19:54:09 10° SE 19:59:08 47° ENE 20:04:10 10° N visible
29 Jan 6.8 21:35:03 10° SW 21:39:08 23° W 21:43:14 10° NW visible
30 Jan 7.6 08:09:24 10° NE 08:12:44 17° E 08:16:04 10° SE visible
30 Jan 5.4 19:29:39 10° ESE 19:34:05 29° ENE 19:38:34 10° N visible
30 Jan 6.0 21:08:52 10° SSW 21:13:42 38° W 21:18:36 10° NNW visible
31 Jan 5.0 20:43:11 10° S 20:48:23 64° WSW 20:53:38 10° NNW visible
01 Feb 4.5 20:17:56 10° SSE 20:23:10 77° ENE 20:28:27 10° N visible
01 Feb 7.5 22:00:59 10° WSW 22:03:31 13° W 22:06:04 10° WNW visible
02 Feb 4.8 19:53:03 10° SE 19:58:02 46° ENE 20:03:04 10° N visible
02 Feb 6.8 21:33:53 10° SW 21:38:00 23° W 21:42:10 10° NW visible
03 Feb 7.6 08:08:21 10° NE 08:11:37 16° E 08:14:52 10° SE visible
03 Feb 5.4 19:28:35 10° ESE 19:33:00 28° ENE 19:37:27 10° N visible
03 Feb 5.9 21:07:43 10° SSW 21:12:35 39° W 21:17:31 10° NNW visible
04 Feb 4.9 20:42:04 10° S 20:47:17 66° WSW 20:52:33 10° NNW visible
05 Feb 4.5 20:16:49 10° SSE 20:22:03 75° ENE 20:27:20 10° N visible
05 Feb 7.5 21:59:45 10° WSW 22:02:24 14° W 22:05:04 10° WNW visible
06 Feb 4.9 19:51:57 10° SE 19:56:56 45° ENE 20:01:57 10° N visible
06 Feb 6.8 21:32:43 10° SSW 21:36:53 24° W 21:41:06 10° NW visible
